Time,TemperatureF,DewpointF,PressureIn,WindDirection,WindDirectionDegrees,WindSpeedMPH,WindSpeedGustMPH,Humidity,HourlyPrecipIn,Conditions,Clouds,dailyrainin,SoftwareType,DateUTC
2013-03-01 00:01:00,52.0,52.0,-100.00,SW,225,1.0,4.0,99,-99.99,,,-99.99,,2013-03-01 08:01:00,
2013-03-01 00:11:00,52.0,52.0,-100.00,SW,225,3.0,5.0,99,-99.99,,,-99.99,,2013-03-01 08:11:00,
2013-03-01 00:22:00,52.0,52.0,-100.00,SW,225,3.0,5.0,99,-99.99,,,-99.99,,2013-03-01 08:22:00,
2013-03-01 00:32:00,52.0,52.0,-100.00,South,180,2.0,4.0,99,-99.99,,,-99.99,,2013-03-01 08:32:00,
2013-03-01 00:42:00,52.0,51.0,-100.00,SE,135,1.0,4.0,98,-99.99,,,-99.99,,2013-03-01 08:42:00,
2013-03-01 00:53:00,52.0,51.0,-100.00,SE,135,1.0,4.0,98,-99.99,,,-99.99,,2013-03-01 08:53:00,
2013-03-01 01:02:00,52.0,51.0,-100.00,SE,135,1.0,3.0,98,-99.99,,,-99.99,,2013-03-01 09:02:00,
2013-03-01 01:11:00,52.0,51.0,-100.00,SW,225,3.0,4.0,98,-99.99,,,-99.99,,2013-03-01 09:11:00,
2013-03-01 01:22:00,52.0,51.0,-100.00,SW,225,3.0,4.0,98,-99.99,,,-99.99,,2013-03-01 09:22:00,
2013-03-01 01:32:00,52.0,51.0,-100.00,South,180,2.0,4.0,97,-99.99,,,-99.99,,2013-03-01 09:32:00,
2013-03-01 01:42:00,52.0,51.0,-100.00,South,180,2.0,4.0,97,-99.99,,,-99.99,,2013-03-01 09:42:00,
2013-03-01 01:52:00,52.0,51.0,-100.00,South,180,2.0,4.0,97,-99.99,,,-99.99,,2013-03-01 09:52:00,
2013-03-01 02:01:00,52.0,51.0,-100.00,South,180,2.0,5.0,97,-99.99,,,-99.99,,2013-03-01 10:01:00,
2013-03-01 02:11:00,52.0,51.0,-100.00,West,270,1.0,6.0,96,-99.99,,,-99.99,,2013-03-01 10:11:00,
2013-03-01 02:21:00,52.0,51.0,-100.00,West,270,1.0,6.0,96,-99.99,,,-99.99,,2013-03-01 10:21:00,
2013-03-01 02:32:00,52.0,51.0,-100.00,SW,225,3.0,6.0,97,-99.99,,,-99.99,,2013-03-01 10:32:00,
2013-03-01 02:42:00,52.0,51.0,-100.00,SW,225,4.0,9.0,98,-99.99,,,-99.99,,2013-03-01 10:42:00,
2013-03-01 02:52:00,52.0,52.0,-100.00,South,180,3.0,7.0,99,-99.99,,,-99.99,,2013-03-01 10:52:00,
2013-03-01 03:01:00,52.0,52.0,-100.00,South,180,3.0,7.0,99,-99.99,,,-99.99,,2013-03-01 11:01:00,
2013-03-01 03:11:00,52.0,52.0,-100.00,SW,225,4.0,7.0,99,-99.99,,,-99.99,,2013-03-01 11:11:00,
2013-03-01 03:22:00,52.0,52.0,-100.00,SW,225,4.0,7.0,99,-99.99,,,-99.99,,2013-03-01 11:22:00,
2013-03-01 03:32:00,52.0,52.0,-100.00,South,180,3.0,5.0,101,-99.99,,,-99.99,,2013-03-01 11:32:00,
2013-03-01 03:42:00,52.0,52.0,-100.00,SW,225,2.0,8.0,101,-99.99,,,-99.99,,2013-03-01 11:42:00,
2013-03-01 03:52:00,52.0,52.0,-100.00,South,180,3.0,6.0,101,-99.99,,,-99.99,,2013-03-01 11:52:00,
2013-03-01 04:01:00,52.0,52.0,-100.00,South,180,3.0,6.0,101,-99.99,,,-99.99,,2013-03-01 12:01:00,
2013-03-01 04:11:00,52.0,52.0,-100.00,SW,225,3.0,8.0,101,-99.99,,,-99.99,,2013-03-01 12:11:00,
2013-03-01 04:21:00,52.0,52.0,-100.00,SW,225,3.0,8.0,101,-99.99,,,-99.99,,2013-03-01 12:21:00,
2013-03-01 04:32:00,52.0,52.0,-100.00,SW,225,4.0,12.0,101,-99.99,,,-99.99,,2013-03-01 12:32:00,
2013-03-01 04:42:00,52.0,52.0,-100.00,SW,225,7.0,13.0,101,-99.99,,,-99.99,,2013-03-01 12:42:00,
2013-03-01 04:52:00,52.0,52.0,-100.00,SW,225,7.0,13.0,101,-99.99,,,-99.99,,2013-03-01 12:52:00,
2013-03-01 05:01:00,52.0,52.0,-100.00,SW,225,7.0,14.0,101,-99.99,,,-99.99,,2013-03-01 13:01:00,
2013-03-01 05:11:00,52.0,52.0,-100.00,SW,225,6.0,9.0,101,-99.99,,,-99.99,,2013-03-01 13:11:00,
2013-03-01 05:21:00,52.0,52.0,-100.00,SW,225,6.0,9.0,101,-99.99,,,-99.99,,2013-03-01 13:21:00,
2013-03-01 05:32:00,52.0,52.0,-100.00,SW,225,6.0,10.0,101,-99.99,,,-99.99,,2013-03-01 13:32:00,
2013-03-01 05:41:00,52.0,52.0,-100.00,SW,225,6.0,10.0,101,-99.99,,,-99.99,,2013-03-01 13:41:00,
2013-03-01 05:52:00,52.0,52.0,-100.00,SW,225,4.0,9.0,101,-99.99,,,-99.99,,2013-03-01 13:52:00,
2013-03-01 06:01:00,52.0,52.0,-100.00,SW,225,4.0,9.0,101,-99.99,,,-99.99,,2013-03-01 14:01:00,
2013-03-01 06:11:00,52.0,52.0,-100.00,SW,225,3.0,6.0,101,-99.99,,,-99.99,,2013-03-01 14:11:00,
2013-03-01 06:21:00,52.0,52.0,-100.00,SW,225,3.0,8.0,101,-99.99,,,-99.99,,2013-03-01 14:21:00,
2013-03-01 06:32:00,52.0,52.0,-100.00,SW,225,3.0,8.0,101,-99.99,,,-99.99,,2013-03-01 14:32:00,
2013-03-01 06:41:00,52.0,52.0,-100.00,SW,225,4.0,7.0,101,-99.99,,,-99.99,,2013-03-01 14:41:00,
2013-03-01 06:52:00,52.0,51.0,-100.00,SW,225,4.0,8.0,99,-99.99,,,-99.99,,2013-03-01 14:52:00,
2013-03-01 07:01:00,52.0,51.0,-100.00,SW,225,4.0,8.0,99,-99.99,,,-99.99,,2013-03-01 15:01:00,
2013-03-01 07:11:00,52.0,51.0,-100.00,SW,225,4.0,8.0,99,-99.99,,,-99.99,,2013-03-01 15:11:00,
2013-03-01 07:31:00,52.0,51.0,-100.00,SW,225,2.0,5.0,99,-99.99,,,-99.99,,2013-03-01 15:31:00,
2013-03-01 07:42:00,52.0,52.0,-100.00,SW,225,3.0,8.0,99,-99.99,,,-99.99,,2013-03-01 15:42:00,
2013-03-01 07:52:00,52.0,52.0,-100.00,SW,225,3.0,8.0,99,-99.99,,,-99.99,,2013-03-01 15:52:00,
2013-03-01 08:01:00,52.0,52.0,-100.00,SW,225,2.0,6.0,99,-99.99,,,-99.99,,2013-03-01 16:01:00,
2013-03-01 08:11:00,52.0,51.0,-100.00,SW,225,3.0,6.0,98,-99.99,,,-99.99,,2013-03-01 16:11:00,
2013-03-01 08:21:00,52.0,51.0,-100.00,SW,225,3.0,6.0,98,-99.99,,,-99.99,,2013-03-01 16:21:00,
2013-03-01 08:31:00,52.0,52.0,-100.00,SW,225,3.0,6.0,98,-99.99,,,-99.99,,2013-03-01 16:31:00,
2013-03-01 08:41:00,52.0,51.0,-100.00,SW,225,4.0,8.0,96,-99.99,,,-99.99,,2013-03-01 16:41:00,
2013-03-01 08:52:00,53.0,51.0,-100.00,SW,225,5.0,11.0,94,-99.99,,,-99.99,,2013-03-01 16:52:00,
2013-03-01 09:01:00,53.0,51.0,-100.00,SW,225,5.0,11.0,94,-99.99,,,-99.99,,2013-03-01 17:01:00,
2013-03-01 09:11:00,53.0,51.0,-100.00,SW,225,3.0,14.0,93,-99.99,,,-99.99,,2013-03-01 17:11:00,
2013-03-01 09:21:00,53.0,51.0,-100.00,SW,225,3.0,14.0,93,-99.99,,,-99.99,,2013-03-01 17:21:00,
2013-03-01 09:31:00,53.0,51.0,-100.00,SW,225,3.0,8.0,94,-99.99,,,-99.99,,2013-03-01 17:31:00,
2013-03-01 09:41:00,53.0,51.0,-100.00,SW,225,4.0,9.0,93,-99.99,,,-99.99,,2013-03-01 17:41:00,
2013-03-01 09:52:00,53.0,51.0,-100.00,SW,225,4.0,9.0,93,-99.99,,,-99.99,,2013-03-01 17:52:00,
2013-03-01 10:12:00,53.0,51.0,-100.00,SW,225,4.0,11.0,92,-99.99,,,-99.99,,2013-03-01 18:12:00,
2013-03-01 10:22:00,53.0,51.0,-100.00,SW,225,4.0,11.0,92,-99.99,,,-99.99,,2013-03-01 18:22:00,
2013-03-01 10:31:00,54.0,51.0,-100.00,SW,225,4.0,9.0,90,-99.99,,,-99.99,,2013-03-01 18:31:00,
2013-03-01 10:41:00,55.0,51.0,-100.00,SW,225,6.0,11.0,87,-99.99,,,-99.99,,2013-03-01 18:41:00,
2013-03-01 10:52:00,55.0,51.0,-100.00,SW,225,6.0,11.0,87,-99.99,,,-99.99,,2013-03-01 18:52:00,
2013-03-01 11:01:00,55.0,51.0,-100.00,SW,225,4.0,11.0,85,-99.99,,,-99.99,,2013-03-01 19:01:00,
2013-03-01 11:11:00,55.0,50.0,-100.00,SW,225,6.0,11.0,85,-99.99,,,-99.99,,2013-03-01 19:11:00,
2013-03-01 11:21:00,55.0,50.0,-100.00,SW,225,6.0,11.0,85,-99.99,,,-99.99,,2013-03-01 19:21:00,
2013-03-01 11:31:00,55.0,51.0,-100.00,SW,225,5.0,10.0,84,-99.99,,,-99.99,,2013-03-01 19:31:00,
2013-03-01 11:42:00,55.0,50.0,-100.00,SW,225,6.0,10.0,84,-99.99,,,-99.99,,2013-03-01 19:42:00,
2013-03-01 11:52:00,55.0,50.0,-100.00,SW,225,6.0,10.0,84,-99.99,,,-99.99,,2013-03-01 19:52:00,
2013-03-01 12:01:00,55.0,51.0,-100.00,SW,225,3.0,11.0,84,-99.99,,,-99.99,,2013-03-01 20:01:00,
2013-03-01 12:11:00,55.0,50.0,-100.00,SW,225,6.0,11.0,82,-99.99,,,-99.99,,2013-03-01 20:11:00,
2013-03-01 12:21:00,55.0,50.0,-100.00,SW,225,6.0,11.0,82,-99.99,,,-99.99,,2013-03-01 20:21:00,
2013-03-01 12:31:00,56.0,50.0,-100.00,SW,225,6.0,12.0,82,-99.99,,,-99.99,,2013-03-01 20:31:00,
2013-03-01 12:41:00,56.0,50.0,-100.00,SW,225,7.0,12.0,81,-99.99,,,-99.99,,2013-03-01 20:41:00,
2013-03-01 12:52:00,56.0,50.0,-100.00,SW,225,5.0,11.0,80,-99.99,,,-99.99,,2013-03-01 20:52:00,
2013-03-01 13:01:00,56.0,50.0,-100.00,SW,225,5.0,11.0,80,-99.99,,,-99.99,,2013-03-01 21:01:00,
2013-03-01 13:11:00,57.0,51.0,-100.00,SW,225,3.0,11.0,80,-99.99,,,-99.99,,2013-03-01 21:11:00,
2013-03-01 13:21:00,57.0,51.0,-100.00,SW,225,3.0,11.0,80,-99.99,,,-99.99,,2013-03-01 21:21:00,
2013-03-01 13:31:00,57.0,51.0,-100.00,SW,225,4.0,11.0,80,-99.99,,,-99.99,,2013-03-01 21:31:00,
2013-03-01 13:41:00,57.0,51.0,-100.00,SW,225,5.0,11.0,79,-99.99,,,-99.99,,2013-03-01 21:41:00,
2013-03-01 13:52:00,57.0,51.0,-100.00,SW,225,4.0,9.0,78,-99.99,,,-99.99,,2013-03-01 21:52:00,
2013-03-01 14:01:00,57.0,51.0,-100.00,SW,225,4.0,9.0,78,-99.99,,,-99.99,,2013-03-01 22:01:00,
2013-03-01 14:11:00,57.0,51.0,-100.00,SW,225,3.0,8.0,79,-99.99,,,-99.99,,2013-03-01 22:11:00,
2013-03-01 14:21:00,57.0,51.0,-100.00,SW,225,3.0,8.0,79,-99.99,,,-99.99,,2013-03-01 22:21:00,
2013-03-01 14:31:00,57.0,51.0,-100.00,West,270,4.0,8.0,79,-99.99,,,-99.99,,2013-03-01 22:31:00,
2013-03-01 14:41:00,57.0,51.0,-100.00,SW,225,4.0,8.0,78,-99.99,,,-99.99,,2013-03-01 22:41:00,
2013-03-01 14:52:00,57.0,51.0,-100.00,SW,225,3.0,6.0,79,-99.99,,,-99.99,,2013-03-01 22:52:00,
2013-03-01 15:01:00,57.0,51.0,-100.00,SW,225,3.0,6.0,79,-99.99,,,-99.99,,2013-03-01 23:01:00,
2013-03-01 15:11:00,57.0,51.0,-100.00,South,180,3.0,6.0,79,-99.99,,,-99.99,,2013-03-01 23:11:00,
2013-03-01 15:21:00,57.0,51.0,-100.00,South,180,3.0,6.0,79,-99.99,,,-99.99,,2013-03-01 23:21:00,
2013-03-01 15:31:00,57.0,51.0,-100.00,SW,225,3.0,6.0,80,-99.99,,,-99.99,,2013-03-01 23:31:00,
2013-03-01 15:41:00,57.0,51.0,-100.00,SW,225,2.0,7.0,79,-99.99,,,-99.99,,2013-03-01 23:41:00,
2013-03-01 15:52:00,57.0,51.0,-100.00,SW,225,2.0,7.0,79,-99.99,,,-99.99,,2013-03-01 23:52:00,
2013-03-01 16:01:00,58.0,51.0,-100.00,SW,225,3.0,6.0,78,-99.99,,,-99.99,,2013-03-02 00:01:00,
2013-03-01 16:11:00,58.0,51.0,-100.00,SW,225,2.0,4.0,78,-99.99,,,-99.99,,2013-03-02 00:11:00,
2013-03-01 16:21:00,58.0,51.0,-100.00,SW,225,2.0,4.0,78,-99.99,,,-99.99,,2013-03-02 00:21:00,
2013-03-01 16:31:00,58.0,52.0,-100.00,SE,135,1.0,4.0,82,-99.99,,,-99.99,,2013-03-02 00:31:00,
2013-03-01 16:42:00,57.0,51.0,-100.00,North,0,1.0,4.0,82,-99.99,,,-99.99,,2013-03-02 00:42:00,
2013-03-01 16:52:00,57.0,51.0,-100.00,North,0,1.0,4.0,82,-99.99,,,-99.99,,2013-03-02 00:52:00,
2013-03-01 17:01:00,56.0,52.0,-100.00,East,90,2.0,5.0,86,-99.99,,,-99.99,,2013-03-02 01:01:00,
2013-03-01 17:11:00,56.0,53.0,-100.00,East,90,1.0,4.0,90,-99.99,,,-99.99,,2013-03-02 01:11:00,
2013-03-01 17:21:00,56.0,53.0,-100.00,East,90,1.0,4.0,90,-99.99,,,-99.99,,2013-03-02 01:21:00,
2013-03-01 17:31:00,55.0,52.0,-100.00,East,90,1.0,4.0,90,-99.99,,,-99.99,,2013-03-02 01:31:00,
2013-03-01 17:41:00,55.0,53.0,-100.00,East,90,1.0,4.0,92,-99.99,,,-99.99,,2013-03-02 01:41:00,
2013-03-01 17:52:00,55.0,53.0,-100.00,East,90,1.0,4.0,92,-99.99,,,-99.99,,2013-03-02 01:52:00,
2013-03-01 18:01:00,55.0,53.0,-100.00,NE,45,1.0,3.0,93,-99.99,,,-99.99,,2013-03-02 02:01:00,
2013-03-01 18:11:00,54.0,53.0,-100.00,SE,135,1.0,4.0,93,-99.99,,,-99.99,,2013-03-02 02:11:00,
2013-03-01 18:21:00,54.0,53.0,-100.00,SE,135,1.0,4.0,93,-99.99,,,-99.99,,2013-03-02 02:21:00,
2013-03-01 18:31:00,54.0,52.0,-100.00,SE,135,1.0,3.0,94,-99.99,,,-99.99,,2013-03-02 02:31:00,
2013-03-01 18:41:00,54.0,52.0,-100.00,North,0,0.0,6.0,94,-99.99,,,-99.99,,2013-03-02 02:41:00,
2013-03-01 18:52:00,53.0,52.0,-100.00,South,180,1.0,4.0,94,-99.99,,,-99.99,,2013-03-02 02:52:00,
2013-03-01 19:01:00,53.0,52.0,-100.00,South,180,1.0,4.0,94,-99.99,,,-99.99,,2013-03-02 03:01:00,
2013-03-01 19:11:00,53.0,52.0,-100.00,South,180,1.0,4.0,94,-99.99,,,-99.99,,2013-03-02 03:11:00,
2013-03-01 19:32:00,52.0,50.0,-100.00,East,90,2.0,4.0,94,-99.99,,,-99.99,,2013-03-02 03:32:00,
2013-03-01 19:41:00,52.0,50.0,-100.00,East,90,2.0,4.0,94,-99.99,,,-99.99,,2013-03-02 03:41:00,
2013-03-01 19:52:00,52.0,50.0,-100.00,South,180,0.0,3.0,94,-99.99,,,-99.99,,2013-03-02 03:52:00,
2013-03-01 20:01:00,52.0,50.0,-100.00,South,180,0.0,3.0,94,-99.99,,,-99.99,,2013-03-02 04:01:00,
2013-03-01 20:11:00,52.0,50.0,-100.00,SW,225,0.0,3.0,94,-99.99,,,-99.99,,2013-03-02 04:11:00,
2013-03-01 20:21:00,52.0,50.0,-100.00,SW,225,0.0,3.0,94,-99.99,,,-99.99,,2013-03-02 04:21:00,
2013-03-01 20:31:00,52.0,50.0,-100.00,South,180,1.0,2.0,94,-99.99,,,-99.99,,2013-03-02 04:31:00,
2013-03-01 20:41:00,52.0,50.0,-100.00,West,270,0.0,2.0,94,-99.99,,,-99.99,,2013-03-02 04:41:00,
2013-03-01 20:52:00,51.0,49.0,-100.00,NW,315,1.0,1.0,92,-99.99,,,-99.99,,2013-03-02 04:52:00,
2013-03-01 21:01:00,51.0,49.0,-100.00,NW,315,1.0,1.0,92,-99.99,,,-99.99,,2013-03-02 05:01:00,
2013-03-01 21:12:00,51.0,49.0,-100.00,North,0,0.0,2.0,92,-99.99,,,-99.99,,2013-03-02 05:12:00,
2013-03-01 21:22:00,51.0,49.0,-100.00,North,0,0.0,2.0,92,-99.99,,,-99.99,,2013-03-02 05:22:00,
2013-03-01 21:31:00,51.0,49.0,-100.00,North,0,0.0,1.0,92,-99.99,,,-99.99,,2013-03-02 05:31:00,
2013-03-01 21:41:00,50.0,48.0,-100.00,SW,225,1.0,2.0,91,-99.99,,,-99.99,,2013-03-02 05:41:00,
2013-03-01 21:52:00,50.0,48.0,-100.00,NE,45,0.0,2.0,92,-99.99,,,-99.99,,2013-03-02 05:52:00,
2013-03-01 22:01:00,50.0,48.0,-100.00,NE,45,0.0,2.0,92,-99.99,,,-99.99,,2013-03-02 06:01:00,
2013-03-01 22:11:00,50.0,48.0,-100.00,NE,45,0.0,3.0,93,-99.99,,,-99.99,,2013-03-02 06:11:00,
2013-03-01 22:21:00,50.0,48.0,-100.00,NE,45,0.0,3.0,93,-99.99,,,-99.99,,2013-03-02 06:21:00,
2013-03-01 22:31:00,50.0,48.0,-100.00,NE,45,0.0,1.0,94,-99.99,,,-99.99,,2013-03-02 06:31:00,
2013-03-01 22:41:00,50.0,48.0,-100.00,SE,135,1.0,1.0,95,-99.99,,,-99.99,,2013-03-02 06:41:00,
2013-03-01 22:52:00,50.0,49.0,-100.00,SE,135,0.0,1.0,96,-99.99,,,-99.99,,2013-03-02 06:52:00,
2013-03-01 23:01:00,50.0,49.0,-100.00,SE,135,0.0,1.0,96,-99.99,,,-99.99,,2013-03-02 07:01:00,
2013-03-01 23:11:00,50.0,49.0,-100.00,East,90,0.0,1.0,96,-99.99,,,-99.99,,2013-03-02 07:11:00,
2013-03-01 23:21:00,50.0,49.0,-100.00,East,90,0.0,1.0,96,-99.99,,,-99.99,,2013-03-02 07:21:00,
2013-03-01 23:32:00,50.0,48.0,-100.00,NE,45,0.0,1.0,96,-99.99,,,-99.99,,2013-03-02 07:32:00,
2013-03-01 23:42:00,50.0,49.0,-100.00,SE,135,0.0,1.0,97,-99.99,,,-99.99,,2013-03-02 07:42:00,
2013-03-01 23:52:00,49.0,48.0,-100.00,North,0,0.0,1.0,97,-99.99,,,-99.99,,2013-03-02 07:52:00,